Change the Weather History Date:

Friday, November 16, 2012

  Actual Average Record
Temperature  
Mean Temperature 24 °F -  
Max Temperature 30 °F 23 °F 40 °F (1957)
Min Temperature 19 °F 7 °F -38 °F (1956)
Degree Days  
Heating Degree Days 40    
Moisture  
Dew Point 3 °F    
Average Humidity 39    
Maximum Humidity 71    
Minimum Humidity 14    
Precipitation  
Precipitation 0.00 in - - ()
Snow  
Snow 0.00 in - - ()
Snow Depth 5.00 in    
Sea Level Pressure  
Sea Level Pressure 29.65 in    
Wind  
Wind Speed 10 mph (NNE)    
Max Wind Speed 17 mph    
Max Gust Speed 29 mph    
Visibility 10 miles    
Events      
Averages and records for this station are not official NWS values.
T = Trace of Precipitation, MM = Missing Value Source: NWS Daily Summary

Daily Weather History Graph

Daily Weather History Graph

Search for Another Location

Airport or City:

Trip Planner

Search our weather history database for the weather conditions in past years. The results will help you decide how hot, cold, wet, or windy it might be!

Date:

Astronomy

Nov. 16, 2012 Rise Set
Actual Time 9:19 AM AKST 4:10 PM AKST
Civil Twilight 8:23 AM AKST 5:05 PM AKST
Nautical Twilight 7:27 AM AKST 6:02 PM AKST
Astronomical Twilight 6:33 AM AKST 6:55 PM AKST
Moon 12:39 PM AKST (11/16) 7:08 PM AKST (11/16)
Length of Visible Light 8h 42m
Length of Day
6h 51m
Waxing Crescent, 13% of the Moon is Illuminated
Nov 16
Waxing Crescent
Nov 20
First Quarter
Nov 28
Full
Dec 6
Last Quarter
Dec 12
New

Hourly Weather History & Observations

Time (AKST) Temp. Windchill Dew Point Humidity Pressure Visibility Wind Dir Wind Speed Gust Speed Precip Events Conditions
12:53 AM 21.0 °F 11.4 °F 12.9 °F 71% 29.66 in 10.0 mi NE 8.1 mph - N/A   Clear
1:53 AM 24.1 °F 16.0 °F 15.1 °F 69% 29.67 in 10.0 mi North 6.9 mph - N/A   Clear
2:53 AM 24.1 °F 16.0 °F 15.1 °F 69% 29.67 in 10.0 mi NNE 6.9 mph - N/A   Clear
3:53 AM 28.0 °F 17.0 °F 14.0 °F 56% 29.67 in 10.0 mi NE 13.8 mph - N/A   Clear
4:53 AM 26.1 °F 16.2 °F 12.9 °F 58% 29.68 in 10.0 mi NE 10.4 mph - N/A   Clear
5:53 AM 27.0 °F 17.3 °F 12.0 °F 53% 29.68 in 10.0 mi NNE 10.4 mph - N/A   Clear
6:53 AM 26.1 °F 15.6 °F 9.0 °F 49% 29.69 in 10.0 mi NNE 11.5 mph - N/A   Clear
7:53 AM 28.0 °F 16.5 °F 5.0 °F 38% 29.70 in 10.0 mi NNE 15.0 mph - N/A   Clear
8:53 AM 28.0 °F 17.0 °F 1.0 °F 31% 29.70 in 10.0 mi NNE 13.8 mph 24.2 mph N/A   Clear
9:53 AM 27.0 °F 19.5 °F -0.0 °F 31% 29.70 in 10.0 mi North 6.9 mph - N/A   Clear
10:53 AM 27.0 °F 18.0 °F -0.0 °F 31% 29.71 in 10.0 mi NNE 9.2 mph - N/A   Clear
11:53 AM 27.0 °F 15.6 °F -0.0 °F 31% 29.69 in 10.0 mi NNE 13.8 mph 24.2 mph N/A   Clear
12:53 PM 28.0 °F 17.5 °F -0.9 °F 29% 29.68 in 10.0 mi NE 12.7 mph 25.3 mph N/A   Clear
1:53 PM 28.0 °F 16.5 °F -2.0 °F 27% 29.67 in 10.0 mi NE 15.0 mph 21.9 mph N/A   Clear
2:53 PM 27.0 °F 14.3 °F -2.9 °F 27% 29.66 in 10.0 mi NNE 17.3 mph 28.8 mph N/A   Clear
3:53 PM 25.0 °F 14.2 °F -2.0 °F 31% 29.64 in 10.0 mi NE 11.5 mph 24.2 mph N/A   Clear
4:53 PM 24.1 °F 11.5 °F -4.0 °F 29% 29.63 in 10.0 mi NNE 15.0 mph 23.0 mph N/A   Clear
5:53 PM 21.9 °F 13.4 °F -4.0 °F 32% 29.62 in 10.0 mi North 6.9 mph 18.4 mph N/A   Clear
6:53 PM 21.9 °F 9.2 °F -2.9 °F 34% 29.62 in 10.0 mi NNE 13.8 mph 19.6 mph N/A   Clear
7:53 PM 21.9 °F 8.7 °F -2.9 °F 34% 29.59 in 10.0 mi NNE 15.0 mph 25.3 mph N/A   Clear
8:53 PM 21.0 °F 12.4 °F -2.0 °F 36% 29.57 in 10.0 mi Variable 6.9 mph - N/A   Clear
9:53 PM 19.9 °F 9.3 °F -2.0 °F 38% 29.56 in 10.0 mi NNE 9.2 mph 16.1 mph N/A   Clear
10:53 PM 19.9 °F 8.6 °F -0.9 °F 40% 29.55 in 10.0 mi NNE 10.4 mph 16.1 mph N/A   Clear
11:53 PM 19.9 °F 7.3 °F -2.9 °F 37% 29.51 in 10.0 mi NNE 12.7 mph 21.9 mph N/A   Clear